Terminal Aerodrome Forecast
Issued by NWS Charleston, WV

Current Version | Previous Version | Graphics & Text | Print | Product List | Glossary On
Versions: 1 2 3 4 5 6 7 8 9 10 11 12 13 14 15 16 17 18 19 20 21 22
000
FTUS41 KRLX 310523
TAFEKN
TAF
KEKN 310523Z 3106/0106 00000KT P6SM BKN080
     FM310800 00000KT 2SM BR BKN002
     FM311100 VRB03KT 6SM BR BKN050
     FM311300 VRB03KT P6SM BKN045
     FM010400 00000KT P6SM SCT070=

USA.gov is the U.S. government's official web portal to all federal, state and local government web resources and services.